Miscellaneous Local Product
Issued by NWS Hastings, NE

Home | Current Version | Previous Version | Text Only | Print | Product List | Glossary On
Versions: 1 2 3 4 5 6 7 8 9 10 11 12 13 14 15 16 17 18 19 20 21 22 23 24 25 26 27 28 29 30 31 32 33 34 35 36 37 38 39 40 41 42 43 44 45 46 47 48 49 50
000
AXUS43 KGID 220410
MISGRI

GID CWA HOURLY WEATHER ROUNDUP
NATIONAL WEATHER SERVICE HASTINGS NE
1100 PM CDT SUN SEP 21 2014

NOTE: "FAIR" INDICATES FEW OR NO CLOUDS BELOW 12,000 FEET WITH NO
SIGNIFICANT WEATHER AND/OR OBSTRUCTIONS TO VISIBILITY.

...SOUTH CENTRAL NEBRASKA...

CITY           SKY/WX    TMP DP  RH WIND       PRES   REMARKS
GRAND ISLAND   CLEAR     52  45  77 CALM      30.30S
HASTINGS       CLEAR     54  45  71 CALM      30.30R
KEARNEY        PTCLDY    55  43  62 N3        30.31R
ORD            CLEAR     47  44  90 CALM      30.29S
YORK           CLEAR     52  48  87 CALM      30.30S
AURORA         CLEAR     51  46  84 NE3       30.30S
LEXINGTON      PTCLDY    52  46  80 CALM      30.31S
HOLDREGE       PTCLDY    53  45  73 CALM      30.30S
HEBRON         CLEAR     50  46  85 CALM      30.29S

...NEBRASKA PANHANDLE...

CITY           SKY/WX    TMP DP  RH WIND       PRES   REMARKS
CHADRON        PTCLDY    62  40  44 S16       30.24F
ALLIANCE       PTCLDY    53  43  68 SE8       30.29F
SCOTTSBLUFF    MOCLDY    59  44  57 E10       30.29S
SIDNEY         CLOUDY    63  40  42 SE12      30.32F

...WESTERN AND NORTH CENTRAL NEBRASKA...

CITY           SKY/WX    TMP DP  RH WIND       PRES   REMARKS
VALENTINE      PTCLDY    48  39  71 CALM      30.29S
AINSWORTH      CLEAR     46  40  80 SE5       30.30S
ONEILL         CLEAR     52  49  91 CALM      30.30S
BROKEN BOW     PTCLDY    47  42  83 CALM      30.31R
IMPERIAL       CLOUDY    62  43  49 SE7       30.32S
NORTH PLATTE   PTCLDY    50  42  74 E6        30.31R
MCCOOK         MOCLDY    61  43  51 E3        30.31R

...EASTERN NEBRASKA...

CITY           SKY/WX    TMP DP  RH WIND       PRES   REMARKS
NORFOLK        CLEAR     47  45  93 SW6       30.28R
SO SIOUX CITY  CLEAR     55  49  80 NE5       30.27R
TEKAMAH        CLEAR     51  48  89 CALM      30.26S
COLUMBUS       CLEAR     48  43  81 CALM      30.30R
ALBION         CLEAR     49  45  86 CALM      30.30S
OMAHA EPPLEY   CLEAR     55  52  89 NE3       30.27R
OFFUTT AFB     CLEAR     50  50  99 CALM      30.26R
MILLARD        CLEAR     55  52  89 CALM      30.26S
LINCOLN        CLEAR     50  47  89 CALM      30.29R
NEBRASKA CITY    N/A     58  42  54 N5        30.27R
BEATRICE       CLEAR     52  48  86 CALM      30.28R
FALLS CITY     CLEAR     56  50  80 N3        30.25S

...NORTHERN KANSAS...

CITY           SKY/WX    TMP DP  RH WIND       PRES   REMARKS
GOODLAND       MOCLDY    57  44  62 SE6       30.34S
HILL CITY      CLEAR     55  43  63 CALM      30.31R
NORTON         PTCLDY    54  39  58 CALM      30.30R
SMITH CENTER   CLEAR     55  43  62 NE9       30.30R
BELOIT         CLEAR     54  46  76 CALM      30.28R
HAYS           CLEAR     57  41  54 E3        30.30R
RUSSELL        CLEAR     60  43  53 E7        30.28R
CONCORDIA      CLEAR     59  47  64 CALM      30.28R
SALINA         CLEAR     62  46  55 N3        30.28R
TOPEKA         CLEAR     59  50  72 N7        30.26R



USA.gov is the U.S. government's official web portal to all federal, state and local government web resources and services.